Theta_e
345 344 343 342 341 340 339 339 339 340 340 340 341 342 344 345 346 346 347 347 347 348 348 348 347 346 346 347 347 346 345 345 343 339 336 337 338 338 338 338 339 339 340 342 344 344 345 346 345 345 346 346 346 345 346 346 345 345 346 346 345 344 345 346 346 345 343 342 341 342 342 341 342 342 343 344 343 341 341 342 338 334 331 327 325
343 342 342 341 340 339 339 340 341 342 343 344 344 346 346 347 347 347 347 346 346 346 347 347 347 346 346 346 346 346 345 345 345 338 332 332 334 335 335 335 336 337 337 338 339 340 342 344 345 346 346 346 346 345 346 347 346 346 346 346 346 346 346 347 347 347 343 342 343 343 343 341 341 342 340 342 344 343 342 342 341 337 335 330 324
344 344 344 343 343 342 341 342 344 345 347 347 347 348 348 347 346 346 345 344 344 345 345 345 345 345 345 345 345 346 345 345 345 342 333 331 333 334 334 334 334 336 336 336 336 335 337 339 341 343 345 346 346 347 346 347 348 347 347 347 346 346 347 347 346 347 345 343 344 345 343 341 342 342 340 340 342 343 343 342 342 340 336 334 329
346 347 346 346 346 346 346 347 347 348 349 348 348 348 348 346 345 346 345 344 343 343 343 343 343 344 344 344 344 344 345 344 344 344 340 335 336 338 338 337 338 338 339 339 339 337 336 336 337 338 340 342 343 345 345 345 346 345 346 347 348 347 346 346 346 346 346 344 344 345 343 341 341 340 339 340 339 341 344 343 342 341 339 337 334
348 348 348 348 348 348 348 348 349 349 349 349 349 349 348 347 347 347 346 346 345 344 343 343 343 343 343 344 344 344 344 345 344 344 344 341 341 342 343 343 343 343 343 342 341 339 337 336 336 335 335 336 337 338 339 338 338 338 339 342 346 348 347 348 347 347 346 345 345 345 344 343 342 342 341 342 342 342 344 344 342 342 342 340 338
348 348 349 349 348 349 349 349 349 349 349 350 351 351 350 350 349 348 348 347 347 346 345 344 344 344 344 343 343 344 344 344 345 344 344 345 344 345 345 345 345 345 345 343 342 340 339 338 337 337 337 337 337 336 336 336 336 336 335 337 341 344 346 347 347 346 345 346 345 344 345 344 344 345 346 345 346 347 345 344 344 343 341 341 342
348 349 349 349 348 349 349 349 349 350 350 351 351 351 351 351 351 349 349 347 347 346 346 346 346 345 344 344 344 343 344 344 344 344 344 344 344 345 346 346 345 346 346 345 344 343 342 342 341 341 342 342 343 342 342 342 343 343 342 340 339 339 340 342 342 341 341 342 342 342 342 343 343 344 347 347 346 348 347 345 346 344 341 341 342
349 349 349 349 349 349 350 351 350 351 351 351 352 352 351 351 350 349 349 348 347 347 347 347 346 346 346 345 345 344 344 345 345 344 343 344 343 344 345 346 346 346 346 346 346 346 346 346 344 344 344 346 347 347 347 348 348 349 349 347 345 343 341 340 340 340 340 340 340 342 343 342 344 345 346 347 347 347 348 347 346 346 344 342 339
348 348 349 349 349 349 350 351 351 351 351 351 351 351 351 351 350 349 348 348 348 347 347 347 346 347 346 346 345 345 346 346 346 345 343 344 345 345 346 346 346 346 346 346 346 346 346 347 346 344 345 346 347 348 348 349 350 350 351 351 350 349 347 345 344 344 344 344 344 345 346 346 346 347 347 348 349 349 350 349 349 348 347 345 342
348 348 349 349 349 348 350 351 351 350 350 350 351 351 351 350 349 348 348 348 348 347 347 347 347 347 346 346 346 347 347 347 347 347 346 346 346 346 346 346 346 346 346 346 346 346 345 346 346 346 346 346 346 347 348 349 349 350 350 351 351 351 351 350 349 349 348 348 349 349 350 350 350 351 351 352 352 351 351 351 351 350 349 348 346
349 348 349 349 349 349 349 351 351 350 351 351 351 351 350 350 349 348 348 348 348 348 348 347 348 347 347 346 347 347 347 348 348 347 346 346 345 345 346 346 346 345 345 345 345 345 345 345 345 346 346 345 346 346 347 348 348 349 350 351 351 352 352 352 352 351 351 350 352 354 353 354 354 354 353 353 353 353 353 353 354 353 352 351 349
349 349 349 349 349 349 349 350 351 350 351 351 351 350 350 350 349 348 348 348 348 348 347 347 347 347 347 347 347 347 346 346 346 345 345 344 344 344 344 345 345 345 345 344 345 344 344 344 344 345 344 344 345 346 346 347 348 349 350 351 351 351 350 350 351 351 351 353 354 355 355 355 355 354 354 354 354 355 355 355 354 354 354 352 350
349 349 349 349 350 350 349 349 350 351 351 351 350 350 350 350 349 348 348 348 348 347 345 346 346 346 347 345 344 344 344 344 343 343 343 343 343 343 343 344 343 344 344 344 344 343 343 343 343 343 343 345 345 346 346 347 348 349 349 349 348 348 348 348 350 351 352 354 354 354 355 355 354 355 355 355 355 355 355 354 354 354 354 353 351
350 350 349 349 350 350 349 349 350 350 350 349 349 349 350 350 349 349 349 348 348 348 346 346 346 346 345 345 346 344 343 342 343 343 343 343 343 343 342 343 343 343 343 343 343 343 343 342 343 343 343 345 345 346 347 348 349 349 348 348 348 348 349 350 351 353 353 354 354 355 355 355 355 355 355 355 355 355 355 355 354 353 353 353 352
350 350 350 349 350 350 350 350 349 349 349 348 349 349 349 349 349 350 350 349 348 347 347 346 347 345 345 349 350 349 349 345 342 342 342 342 342 342 342 342 342 342 342 343 342 343 343 343 344 344 345 346 346 347 348 350 349 346 348 349 349 349 348 348 351 352 353 354 354 354 354 354 354 353 354 354 354 354 353 352 351 350 350 351 352
350 350 350 350 351 350 350 350 349 349 349 349 350 351 351 350 350 351 351 350 348 347 346 346 346 346 347 351 349 353 359 349 343 343 341 342 341 341 342 341 342 342 342 342 342 343 343 344 345 345 346 346 347 348 347 350 349 345 350 352 349 351 348 345 348 350 351 352 352 352 352 351 351 353 353 352 351 349 347 345 345 347 348 349 351
350 350 350 350 351 350 350 350 349 348 348 349 351 351 352 351 351 352 352 351 350 347 346 346 347 346 347 350 351 357 360 348 344 347 341 340 340 340 341 341 341 342 342 342 341 343 342 342 344 344 346 346 347 348 347 350 350 347 352 354 350 352 351 346 346 349 350 350 350 351 350 350 351 352 351 348 346 342 338 336 337 340 344 347 349
350 349 349 350 350 350 350 350 349 348 347 348 351 351 351 352 352 353 353 352 351 348 347 345 345 345 345 347 348 351 352 347 348 351 346 341 340 339 340 340 341 341 341 342 341 341 342 341 342 342 344 345 346 347 347 350 352 350 353 355 352 352 353 350 347 347 349 349 349 349 349 349 350 348 346 344 340 335 332 333 335 336 340 343 346
349 349 349 349 349 349 350 350 350 349 348 347 350 351 351 352 353 354 354 353 352 349 348 346 346 346 346 346 345 344 346 347 349 351 352 350 343 339 340 339 340 340 340 340 340 340 341 341 341 342 342 343 345 346 347 350 353 352 352 354 354 352 353 353 351 347 346 347 348 348 348 348 347 346 344 341 336 331 330 332 333 333 335 338 342
347 347 348 349 350 349 350 350 350 350 349 348 349 351 351 351 352 353 354 353 352 351 349 348 348 348 347 345 345 344 345 346 347 347 349 356 354 344 341 339 338 339 339 339 340 340 340 340 339 340 341 342 344 345 346 350 352 352 351 353 354 353 353 353 354 351 348 346 346 347 347 346 345 345 343 342 336 331 330 330 327 325 326 328 334
346 346 347 349 349 349 350 350 349 350 352 351 350 350 350 351 352 353 354 353 353 352 350 349 349 350 348 346 345 346 346 346 348 346 345 354 358 349 343 341 339 339 339 339 340 339 339 340 339 340 341 341 344 346 347 349 352 352 351 352 352 352 353 353 354 355 352 348 346 345 347 346 345 344 343 343 342 335 330 328 323 320 320 320 323
347 346 345 346 347 349 350 350 349 349 352 352 350 350 350 350 352 353 353 353 353 353 352 350 349 350 350 348 347 347 348 346 347 348 345 346 350 347 343 344 343 340 340 340 340 340 339 340 340 341 342 343 346 350 350 348 349 352 353 353 354 352 352 354 354 355 355 353 349 346 346 346 345 344 343 344 345 343 336 328 321 318 318 318 317
349 347 345 344 346 349 350 350 350 350 351 352 350 351 351 352 352 352 353 353 353 353 353 351 350 350 350 349 348 347 348 347 346 349 346 344 347 346 343 346 345 341 341 341 340 340 340 340 341 344 346 346 348 351 350 347 347 352 354 354 355 353 352 353 354 354 355 355 353 349 346 346 345 344 344 344 345 346 343 337 327 319 317 317 316
349 346 346 346 346 348 350 350 350 351 351 351 351 353 353 353 352 353 353 352 353 353 353 352 350 350 350 349 349 348 348 348 347 348 346 344 345 344 343 347 347 343 342 341 340 340 341 341 341 346 349 348 349 349 349 350 351 353 355 355 356 355 353 353 354 354 355 355 356 354 348 345 345 344 344 344 345 345 346 345 338 328 320 316 316
348 347 347 347 346 348 350 351 350 351 352 352 353 353 354 354 353 353 354 353 354 354 353 352 351 351 351 350 349 348 348 347 347 348 347 345 345 344 344 346 347 347 345 344 342 341 341 342 342 345 349 349 349 350 350 352 354 354 355 356 356 356 355 353 354 354 355 355 355 356 353 348 346 345 344 344 345 346 346 346 346 341 330 319 316
348 349 349 348 348 350 351 351 350 352 353 354 354 354 354 354 354 353 354 354 354 354 353 353 352 352 352 351 350 349 348 348 347 347 347 347 347 346 345 346 345 345 347 348 348 347 346 345 345 347 349 349 350 352 352 352 354 355 356 356 357 356 355 354 354 354 355 356 356 356 356 352 348 347 347 346 345 346 346 346 347 347 342 329 319
349 350 351 350 351 352 353 351 350 351 354 355 355 355 354 353 354 354 354 354 354 353 353 353 353 353 352 351 351 349 348 348 347 347 347 347 348 346 346 350 352 349 346 348 350 350 351 349 348 350 350 351 352 353 353 353 354 354 355 355 356 356 356 355 355 356 355 356 356 356 356 355 352 350 349 348 347 347 347 347 346 347 347 342 328
351 351 352 352 352 353 353 352 350 351 353 353 355 355 354 353 353 354 354 354 354 353 354 354 354 354 353 351 351 350 348 349 348 347 346 347 348 347 346 349 354 356 355 355 353 350 352 352 351 352 351 351 353 353 353 354 353 353 353 354 355 356 356 355 355 355 356 356 356 356 356 356 354 353 351 350 349 348 348 348 348 346 347 347 341
351 351 351 352 353 354 354 353 352 351 351 352 354 354 353 353 353 354 354 354 354 355 355 355 355 354 354 353 351 350 349 349 349 348 346 348 349 347 347 347 349 356 361 365 359 350 350 351 350 349 348 348 349 349 351 353 354 354 354 354 355 356 356 356 356 356 356 356 356 356 356 356 356 355 353 351 350 350 349 348 348 348 347 347 347
350 351 351 352 353 353 354 354 354 353 352 353 354 353 353 354 354 355 355 353 353 354 355 355 355 355 355 354 352 351 351 349 350 349 347 348 349 348 348 347 347 351 354 361 362 353 348 350 348 347 346 345 347 348 348 350 352 354 355 355 355 356 356 356 356 356 356 357 356 355 356 356 357 356 355 354 352 351 351 350 349 349 349 347 347
350 351 352 352 352 353 353 354 355 354 354 354 354 354 353 353 355 355 354 354 354 354 355 355 355 356 356 355 353 351 351 350 350 350 348 348 349 349 349 348 348 350 349 353 360 355 348 348 348 347 347 347 348 349 348 348 349 350 351 351 353 354 355 355 354 354 355 356 357 356 356 356 357 357 356 355 354 353 352 352 351 350 350 349 347
351 351 352 353 353 352 352 353 355 355 355 355 355 354 353 353 354 355 355 355 356 355 355 354 354 356 357 357 355 352 351 351 350 350 350 349 349 349 349 349 348 350 349 350 354 351 348 349 348 347 348 348 348 349 349 348 348 349 348 347 348 348 349 350 351 352 354 356 357 357 356 356 356 357 357 356 355 354 353 352 353 352 351 350 349
352 353 353 354 354 353 352 352 354 354 355 355 355 354 354 355 354 354 355 356 356 356 355 353 352 354 356 356 356 355 353 353 353 353 351 351 352 351 351 350 348 350 350 350 351 350 350 350 349 349 348 348 348 349 350 350 349 349 349 348 348 350 350 350 351 352 353 356 357 357 356 355 355 356 357 358 356 355 355 354 353 353 352 351 351
353 354 354 354 355 354 353 353 352 353 353 354 354 354 355 356 355 354 353 354 355 355 354 352 351 352 354 354 354 354 355 355 355 356 354 353 354 354 354 354 352 352 352 352 352 351 351 351 351 350 349 348 349 349 350 350 350 350 350 350 351 353 355 355 354 354 355 356 356 357 357 355 354 355 356 357 358 357 356 355 354 353 353 353 352
353 354 354 354 354 355 355 355 354 354 353 352 353 354 355 356 355 354 353 352 353 353 352 352 352 353 354 354 354 353 354 355 355 356 355 355 355 356 356 356 355 355 355 355 354 352 352 352 351 350 350 350 350 350 350 351 351 351 351 351 350 351 354 355 355 355 354 355 355 355 356 355 354 354 355 357 357 358 357 356 355 354 353 353 353
354 354 354 354 354 354 354 355 355 355 354 352 353 354 355 355 356 355 355 354 353 353 353 354 354 354 354 354 354 354 354 354 354 355 356 356 356 357 357 356 356 357 357 356 355 354 353 353 352 351 350 350 350 350 351 351 351 351 351 351 350 349 349 349 349 350 351 353 354 354 354 354 354 354 355 356 357 356 356 355 354 353 353 353 353
353 354 354 354 353 353 353 353 354 355 355 354 354 355 355 356 356 355 356 355 355 354 354 355 355 354 354 354 354 355 356 356 355 355 355 356 356 356 357 356 356 357 357 356 356 355 355 354 354 353 350 350 350 350 350 351 351 351 349 348 348 347 346 345 345 346 348 350 352 352 352 352 352 353 353 355 356 356 355 354 353 353 352 351 351
353 353 354 354 353 352 351 352 353 353 354 354 354 355 355 356 356 355 355 355 356 355 355 355 355 354 354 354 354 355 356 357 357 357 356 355 356 356 356 355 356 356 356 356 356 355 355 355 355 354 353 353 352 351 350 352 352 351 348 346 343 342 343 343 340 339 341 344 346 349 350 350 350 351 351 353 355 355 354 354 353 352 351 350 350
353 353 353 353 353 352 351 350 351 351 352 353 354 355 355 355 355 355 355 355 355 356 355 355 355 354 354 354 354 354 355 356 356 357 356 356 356 356 356 355 355 355 354 354 355 355 355 355 355 355 354 354 354 352 351 352 352 351 350 349 346 342 343 345 341 339 338 339 340 341 342 346 349 350 350 350 352 353 354 355 353 352 350 348 348
354 354 353 352 353 353 352 351 350 350 351 352 354 354 354 355 355 355 355 354 354 354 355 355 354 354 354 353 353 354 354 354 354 355 355 355 355 355 354 354 353 353 352 352 353 354 354 354 354 354 354 353 353 352 351 352 352 351 350 351 350 348 347 347 344 343 343 340 339 339 338 341 344 345 345 345 346 349 351 352 353 351 349 348 347
355 355 354 353 353 353 352 351 350 350 350 351 352 352 353 354 354 354 355 354 354 354 354 354 353 353 353 352 352 352 352 353 353 353 353 353 354 353 352 351 351 351 350 351 352 352 352 353 353 353 353 353 352 351 351 351 351 351 351 351 352 350 350 349 346 345 345 344 343 342 341 341 343 342 342 342 342 345 349 350 350 350 350 349 347
355 354 353 352 351 351 351 350 350 350 349 350 350 350 351 351 352 353 353 353 353 353 353 353 353 352 352 351 352 352 351 351 351 351 352 352 353 353 351 350 350 350 350 350 351 351 352 352 352 352 352 352 351 350 350 349 349 351 351 351 352 351 351 351 349 345 346 347 347 346 344 345 346 346 344 342 342 345 348 349 350 351 351 350 348
352 351 351 351 349 349 349 349 349 349 349 348 349 348 349 349 350 351 352 352 352 352 353 353 352 352 351 351 351 351 351 351 351 350 351 350 351 351 351 351 350 350 351 351 350 351 351 351 351 351 351 351 349 347 347 347 346 347 349 350 352 352 352 352 352 349 346 347 349 349 346 346 348 350 347 344 343 345 346 346 347 349 350 350 348
350 349 349 349 349 349 349 349 349 349 348 348 348 348 348 348 348 349 349 350 351 351 351 351 351 351 351 351 351 351 351 351 351 351 351 350 350 350 350 350 350 350 350 350 350 350 350 351 351 350 350 349 348 346 345 344 344 345 347 349 351 352 352 352 352 351 348 347 349 350 349 346 349 350 349 346 345 346 345 345 345 346 347 347 348
350 351 350 349 349 349 349 350 350 349 349 348 348 347 347 347 347 347 348 349 350 350 350 351 351 351 351 351 351 351 350 350 350 351 351 352 352 352 351 351 350 350 349 348 348 348 348 349 350 349 348 347 347 344 342 344 345 347 348 349 350 351 351 352 352 351 348 348 350 351 351 348 347 350 350 347 347 348 347 346 346 346 345 346 346
348 350 351 350 349 350 350 350 350 349 348 348 347 346 346 347 347 348 348 349 350 350 350 350 351 351 351 351 351 351 351 351 351 351 352 352 352 352 352 352 352 352 351 350 349 348 347 347 348 348 346 345 345 344 342 344 346 347 349 349 350 351 351 351 352 351 348 347 350 352 352 350 348 350 351 349 348 349 348 347 347 346 345 345 345
348 349 351 352 351 351 350 350 350 349 349 348 348 348 348 348 348 349 349 350 351 351 351 351 351 352 352 352 352 352 351 351 351 352 352 352 352 352 351 352 351 351 351 351 350 350 349 348 347 347 346 345 345 344 344 345 346 347 348 349 350 351 351 351 352 350 349 348 349 351 352 351 349 351 351 348 348 348 346 347 347 346 346 346 345
351 351 352 353 353 352 352 351 351 351 351 351 351 350 350 350 350 350 350 350 350 350 350 351 351 351 351 351 351 350 351 351 350 350 350 349 350 350 350 350 350 349 349 350 349 349 349 348 348 347 346 346 345 345 345 346 346 347 348 349 349 350 350 351 351 349 349 349 348 349 350 350 350 351 351 349 349 348 346 345 346 347 348 348 347
351 353 353 354 354 353 352 352 352 353 353 352 352 352 352 351 351 351 351 351 352 351 351 351 351 351 351 351 350 350 350 351 351 350 350 350 349 349 348 348 348 348 349 350 350 349 348 347 347 347 346 346 345 345 345 346 347 348 349 349 350 350 349 349 350 349 349 350 350 349 349 350 351 351 351 350 349 348 348 348 347 348 350 349 349
350 350 350 350 350 351 351 350 351 353 353 353 353 353 352 352 352 352 352 352 352 352 352 352 352 352 352 352 351 351 351 351 351 351 351 351 351 350 349 349 349 350 351 351 350 349 348 347 347 347 347 346 346 346 347 347 349 350 350 350 351 350 349 349 349 349 350 350 351 350 350 350 351 351 350 350 349 350 350 351 351 350 350 350 350
347 346 346 346 347 348 349 350 350 351 352 352 352 352 352 352 351 352 351 352 352 351 351 351 351 351 351 351 351 351 351 351 351 352 352 352 351 351 350 350 350 350 351 351 350 350 349 348 347 347 347 347 348 348 348 349 351 352 352 352 353 351 350 350 350 349 350 351 351 351 350 351 351 350 349 350 351 352 352 352 352 352 352 352 352
Wind_Speed
12 12 12 12 11 11 11 11 11 11 10 10 9 7 6 4 2 1 1 2 2 1 1 2 3 4 5 5 5 6 6 7 7 6 5 6 6 7 7 8 9 9 9 8 7 7 8 9 9 9 9 10 10 10 10 10 11 10 9 10 9 9 9 10 11 12 13 12 11 11 12 12 11 10 9 7 5 4 4 5 3 6 9 6 4
13 13 12 12 11 10 10 10 10 9 8 6 5 3 2 1 2 3 4 4 4 3 3 4 4 4 5 5 5 6 6 7 8 7 6 5 6 6 7 8 8 9 9 9 9 8 8 8 9 9 10 10 10 11 10 11 11 11 11 11 11 11 11 12 12 13 13 12 12 12 13 12 10 10 9 9 7 6 4 5 5 6 8 6 1
12 12 11 11 10 9 9 8 7 6 5 4 3 3 3 3 4 4 5 4 4 3 4 4 4 4 5 5 5 6 6 7 7 8 7 6 6 6 7 7 8 8 9 9 10 10 9 9 9 10 10 10 10 11 11 11 12 12 12 12 12 12 12 13 12 12 13 12 13 13 13 12 11 10 9 8 8 7 5 4 6 6 5 6 4
10 9 9 8 8 7 6 5 4 4 4 3 4 4 4 4 4 5 5 5 4 4 4 3 3 4 5 5 6 6 6 7 7 8 8 7 6 7 7 7 8 9 9 10 10 10 10 10 11 11 11 11 11 11 11 12 13 13 12 12 12 12 13 13 12 12 12 12 13 13 13 12 10 10 10 8 7 8 8 6 7 8 8 5 6
8 7 7 6 6 6 5 4 3 3 3 4 5 5 5 4 5 5 6 6 6 5 5 5 5 5 6 6 7 7 7 7 8 8 8 8 7 7 8 8 9 9 10 10 10 11 11 11 11 12 12 12 12 12 12 12 13 13 13 13 12 12 12 13 13 13 12 11 12 13 13 11 10 10 10 9 8 7 7 7 8 9 9 6 3
7 6 6 6 5 5 5 3 3 3 4 5 6 5 5 6 7 6 6 6 6 6 6 6 7 7 8 8 8 8 8 8 9 9 8 8 8 9 9 10 10 11 11 10 10 10 11 11 11 12 12 12 12 12 13 13 14 15 15 15 14 13 13 13 14 13 12 12 12 12 13 12 11 10 10 10 10 9 8 8 7 7 8 9 6
6 6 6 6 5 5 5 4 3 4 5 5 6 6 6 7 7 7 6 6 5 5 5 6 7 8 8 8 8 9 9 9 9 9 9 9 9 10 10 10 11 11 11 11 10 10 10 11 11 12 12 12 12 13 13 14 15 15 16 16 16 16 15 15 15 14 14 13 13 13 13 13 12 11 10 11 11 11 11 10 8 8 7 10 10
6 6 6 5 5 4 4 3 3 3 4 5 5 5 6 7 7 7 6 5 5 5 5 6 7 8 8 8 8 8 8 9 9 9 9 9 9 9 10 10 11 12 12 12 11 11 11 11 12 12 11 11 12 12 13 14 15 15 16 17 17 17 16 16 16 16 15 15 14 13 14 14 14 13 12 12 12 12 13 12 11 9 7 10 11
5 5 4 4 3 2 2 2 2 2 3 4 4 5 5 6 7 7 6 4 5 5 5 7 8 8 7 7 7 7 7 8 8 8 8 9 9 10 10 10 11 12 12 12 12 12 12 12 12 12 12 11 12 12 13 13 14 15 16 17 17 17 16 16 16 16 16 16 15 14 13 13 13 14 14 14 14 13 14 14 13 10 5 7 10
4 4 3 2 2 1 2 1 0 1 2 3 3 4 4 5 6 6 6 5 4 5 6 7 8 7 6 6 7 7 8 9 9 8 8 10 10 10 10 10 11 12 12 12 13 13 13 12 12 12 12 12 11 12 12 13 14 16 17 18 18 18 17 16 16 16 17 16 16 14 13 12 12 13 13 13 14 14 13 13 13 11 7 7 5
4 4 3 3 2 2 3 2 2 2 2 2 4 4 4 4 5 6 5 5 4 5 6 7 7 6 5 6 7 8 9 9 9 9 9 10 11 11 10 11 11 11 11 12 13 13 13 12 12 12 12 11 11 12 12 14 15 16 18 20 19 18 16 15 15 15 15 15 14 14 13 13 12 12 11 11 12 12 11 11 11 11 10 10 5
5 5 5 4 4 3 4 4 4 3 2 3 3 4 4 4 5 6 5 4 5 6 6 7 6 5 4 5 6 8 8 8 8 8 9 9 9 10 10 11 11 11 11 12 13 13 13 12 12 12 11 11 11 12 13 15 16 17 19 19 18 17 16 14 13 13 13 13 13 12 12 12 11 10 10 10 10 11 11 10 10 10 10 10 8
7 6 6 6 5 4 4 4 4 4 3 3 3 3 4 4 4 5 5 5 5 6 7 8 6 5 5 6 7 6 6 6 7 8 9 9 9 10 10 11 11 10 11 12 12 12 12 12 11 11 10 10 11 12 14 16 17 19 18 17 17 17 15 13 12 11 12 12 12 11 11 11 11 11 10 10 10 11 11 10 10 9 9 8 8
7 7 7 6 6 5 5 4 5 4 3 3 3 2 3 3 3 4 5 6 6 6 6 7 7 6 6 7 7 6 4 4 7 8 9 9 9 9 10 10 10 10 11 10 10 11 11 11 10 9 9 10 12 14 16 17 19 19 16 16 17 17 15 13 12 11 11 11 11 11 12 12 12 12 12 12 11 11 11 10 10 9 9 9 8
8 8 7 7 6 6 6 5 5 4 3 3 3 2 2 2 3 4 5 6 5 6 7 7 7 6 5 3 4 5 3 6 12 10 6 6 7 7 8 8 8 9 10 9 9 8 9 9 9 8 9 10 12 14 17 18 19 16 15 17 18 19 18 15 13 12 11 11 11 11 12 12 13 13 13 13 12 12 11 10 9 9 9 9 8
9 8 8 7 6 6 6 6 6 5 4 3 2 2 2 2 2 4 5 6 6 6 7 7 6 5 4 1 1 2 1 7 14 11 9 6 4 5 6 7 7 8 8 8 7 7 7 7 8 8 9 11 12 14 16 17 17 15 15 18 19 21 21 19 16 13 12 11 11 12 12 13 13 13 13 13 14 13 12 11 10 8 7 7 7
10 9 9 8 7 6 6 6 6 6 5 4 3 3 2 1 1 3 5 6 7 8 7 7 6 5 4 2 1 2 1 6 10 8 11 10 5 5 5 5 6 6 7 7 6 6 6 7 7 8 9 11 12 14 15 16 15 15 16 18 19 21 22 22 20 17 15 13 12 13 13 14 14 14 14 15 15 15 14 13 11 8 7 6 6
11 10 9 9 8 7 7 7 7 6 6 5 4 3 3 2 1 2 3 5 6 8 7 7 5 4 5 4 3 2 3 5 5 4 9 11 10 7 3 4 6 5 6 7 6 7 7 8 9 9 10 11 12 13 14 14 14 15 16 17 19 20 22 23 23 21 18 16 15 15 15 15 15 15 16 17 17 16 15 13 12 10 7 6 6
12 11 10 9 8 8 7 7 7 6 7 7 5 4 4 3 2 1 2 3 5 7 7 7 6 5 5 5 5 4 2 3 3 2 4 7 12 11 6 4 5 5 6 6 6 6 7 8 10 10 10 11 11 12 13 13 13 15 16 17 18 19 21 23 24 24 22 20 18 17 16 16 16 16 17 18 18 17 16 14 12 11 8 7 6
12 12 11 10 9 9 8 9 8 7 8 7 6 5 5 5 4 2 2 2 3 5 6 7 7 7 7 8 8 7 5 5 7 5 1 2 8 10 9 7 5 6 7 7 7 6 6 9 10 12 11 11 11 11 12 12 12 14 16 17 18 18 20 22 23 24 24 22 20 18 17 17 16 17 18 19 19 19 17 15 13 12 9 7 6
13 12 12 11 10 9 9 9 9 8 8 8 7 7 6 6 5 3 1 2 2 3 5 5 7 8 9 10 9 8 6 6 10 9 2 1 3 5 9 10 6 7 7 7 7 6 7 9 10 11 10 10 9 9 11 11 10 12 15 17 17 17 18 20 22 23 23 23 22 20 18 17 17 17 18 19 20 20 19 17 15 13 11 9 7
13 13 13 13 11 10 10 10 10 9 9 8 7 7 6 6 6 4 3 2 1 2 4 5 6 7 8 10 11 10 8 7 11 11 4 1 2 4 8 8 6 7 8 8 7 7 8 9 9 10 9 9 8 9 10 10 9 11 14 16 16 16 17 18 20 21 22 23 23 21 19 17 17 17 19 19 20 21 21 19 17 16 13 11 9
13 13 13 13 12 12 11 10 10 10 9 8 7 6 5 5 6 5 4 4 2 2 4 4 5 5 6 8 10 10 9 8 10 12 6 2 2 4 7 8 5 6 9 8 6 6 8 8 7 8 9 9 9 10 10 10 10 11 12 14 16 16 15 16 18 19 20 21 21 22 20 18 17 17 18 19 20 21 21 21 20 18 16 13 11
13 13 13 13 12 12 11 11 11 10 9 8 7 6 5 5 5 5 5 4 3 3 4 4 4 4 4 5 7 8 9 9 11 13 9 3 3 5 7 8 5 6 9 8 6 6 9 8 6 6 8 9 10 10 10 10 10 10 12 13 14 16 15 15 16 17 18 19 19 20 20 19 17 17 17 18 19 20 21 22 21 20 18 16 13
14 14 13 12 12 12 11 11 11 10 9 8 7 6 5 5 5 5 4 3 3 4 5 4 4 3 3 3 4 5 7 9 10 13 11 6 5 5 6 6 5 7 9 9 7 7 8 8 5 4 7 9 10 10 9 9 10 11 12 12 13 14 15 15 16 16 16 17 18 17 18 19 18 18 17 17 18 19 20 21 21 21 20 18 15
14 14 13 12 12 12 11 11 11 10 8 7 7 7 7 6 5 5 4 4 4 5 5 4 4 4 4 3 3 3 5 7 8 10 10 9 7 6 6 5 3 5 8 9 10 9 9 8 5 3 5 7 8 9 9 10 10 11 12 12 13 13 14 15 15 15 15 16 16 16 16 17 17 18 18 18 18 18 19 20 20 21 21 20 17
13 13 11 12 12 11 11 11 11 10 9 8 7 7 8 7 6 6 5 4 4 4 4 4 4 5 4 4 3 2 4 5 6 7 8 9 8 7 6 5 2 4 6 8 9 11 11 9 6 4 5 7 8 9 9 10 11 11 12 12 12 11 12 14 14 14 15 15 15 15 14 15 15 16 17 17 18 18 18 19 19 20 21 20 19
12 13 12 11 12 12 12 11 10 10 10 9 8 8 8 8 8 7 6 5 5 4 4 4 4 4 4 3 3 2 2 3 5 5 6 7 7 6 6 6 4 2 3 5 5 7 9 9 6 6 7 7 8 9 10 11 11 11 10 10 10 10 10 12 12 13 14 14 14 13 13 13 14 15 15 16 16 17 17 18 18 19 20 20 19
12 13 13 12 12 12 12 11 10 10 10 10 9 8 8 9 9 8 7 6 6 6 6 5 4 4 3 3 3 2 2 2 3 4 4 5 6 6 6 5 4 2 0 2 3 3 6 8 7 7 9 8 8 9 10 11 11 11 10 10 10 9 10 11 11 13 14 14 13 12 12 12 13 14 14 15 15 16 16 17 17 18 19 19 19
12 12 13 13 12 12 13 12 11 11 11 11 9 9 9 9 10 9 9 8 8 7 7 6 5 4 4 3 3 3 2 2 2 4 4 4 4 5 5 5 4 2 2 1 1 2 5 9 10 10 10 9 8 9 10 10 11 11 11 12 11 10 11 12 12 13 13 13 12 11 11 11 12 13 13 14 14 15 15 16 16 16 17 18 18
12 12 13 12 12 12 13 13 12 11 11 11 10 9 9 10 10 10 10 9 9 9 8 7 6 6 5 4 4 4 3 3 2 3 3 3 4 5 5 5 4 2 1 1 1 2 6 10 11 11 10 9 9 9 10 9 10 11 12 13 13 13 14 15 15 14 12 12 12 11 11 10 10 11 12 13 14 14 15 15 15 15 16 16 16
12 12 13 12 12 12 12 13 13 12 11 11 10 10 10 10 11 11 11 10 10 10 9 8 8 7 7 5 4 4 5 5 4 3 3 4 5 6 7 7 6 3 2 1 2 4 8 10 11 12 11 10 10 10 10 9 10 12 14 14 13 14 15 15 15 14 12 11 12 12 11 10 9 9 10 11 12 13 14 15 15 15 15 15 15
13 12 13 12 12 12 12 12 13 13 12 11 11 11 11 11 12 12 12 11 11 12 11 10 9 8 8 7 6 5 5 5 5 5 5 5 6 7 8 9 8 7 5 4 4 6 9 9 10 12 11 11 11 10 10 11 12 13 15 15 14 13 13 14 14 13 11 11 13 13 12 11 10 9 10 11 11 12 13 14 15 15 15 15 15
14 13 12 12 12 12 12 12 13 13 13 13 13 12 13 12 12 12 12 12 12 12 12 12 10 9 8 8 7 5 5 6 5 5 6 6 6 8 8 9 8 8 7 7 6 6 9 11 11 11 11 10 10 10 11 12 13 14 15 16 14 12 12 13 13 13 12 12 13 13 13 12 11 10 10 12 12 13 13 14 14 15 15 15 15
15 13 12 12 12 12 12 12 13 13 14 14 14 14 14 13 13 12 12 12 13 13 13 12 10 9 9 9 8 6 6 7 7 6 6 7 7 8 8 8 8 8 8 8 8 7 9 12 12 13 12 12 12 12 12 13 14 15 15 16 15 14 13 12 13 13 13 13 13 13 13 13 12 11 12 13 14 14 15 15 15 15 15 15 15
16 15 14 13 13 13 13 13 13 13 13 14 14 14 14 14 14 13 12 12 13 12 12 12 11 10 10 10 9 7 7 8 9 9 9 9 9 9 9 8 8 8 9 9 9 9 10 12 14 15 15 15 15 15 15 16 16 16 16 17 17 16 14 12 13 13 12 12 13 13 13 13 13 13 13 14 14 15 15 15 15 15 15 15 15
17 16 15 15 15 15 14 14 14 14 13 13 14 14 14 14 14 14 13 13 13 13 13 12 12 12 11 11 10 8 9 10 10 11 11 11 12 11 11 11 9 9 10 10 10 11 12 14 16 17 16 17 18 18 17 17 18 18 18 18 17 16 14 14 13 13 13 13 13 14 14 14 14 15 15 15 15 15 15 15 16 16 15 16 16
18 17 17 16 17 16 15 14 14 14 14 14 14 15 14 14 14 14 14 13 13 13 13 13 12 12 12 12 12 11 11 12 12 12 12 12 12 12 12 12 11 12 12 12 12 13 14 15 16 18 18 18 19 19 18 17 18 19 19 19 17 16 16 16 16 15 14 14 15 15 15 15 16 15 14 15 15 16 16 16 16 16 16 16 16
20 19 19 19 18 18 17 15 14 14 14 15 15 16 15 15 15 15 15 14 14 14 14 14 13 13 13 13 13 13 13 13 13 13 13 14 13 14 14 14 14 14 15 15 15 15 16 16 17 18 19 19 19 20 19 19 19 19 18 17 19 20 19 19 18 17 17 16 16 16 16 16 16 15 15 15 16 16 17 17 16 16 15 16 16
20 20 20 20 20 19 18 17 16 15 15 15 15 16 16 16 16 16 15 15 15 15 15 15 15 15 15 14 14 14 13 13 14 14 14 15 15 16 16 16 16 17 17 17 17 17 17 18 19 20 20 21 21 22 22 21 20 19 17 16 19 22 22 21 21 20 20 19 18 17 16 16 17 17 18 19 17 16 17 17 17 17 16 16 16
20 19 18 18 18 19 20 19 18 18 17 17 16 15 16 16 17 17 16 16 16 17 17 17 17 17 17 16 16 15 14 14 14 14 15 15 16 17 17 17 17 19 19 19 19 19 18 18 19 21 21 22 23 23 23 22 21 21 20 19 20 23 22 23 24 23 21 20 20 20 19 18 20 20 20 21 19 17 17 18 18 18 18 18 17
19 17 16 15 15 16 18 19 19 19 19 18 17 17 17 17 17 18 18 18 17 17 18 18 18 18 18 18 17 16 16 15 15 16 16 15 16 17 18 18 19 20 21 22 21 20 19 18 20 20 19 21 23 23 23 24 23 23 23 21 21 22 22 21 24 26 23 19 20 24 25 23 23 23 23 22 21 19 19 19 20 20 20 19 18
17 15 13 14 14 14 15 17 18 18 19 18 18 18 18 18 19 19 20 20 19 19 19 19 20 19 19 19 19 19 19 18 18 18 18 18 18 18 19 19 20 21 23 23 23 23 20 19 20 20 19 21 24 24 24 25 24 23 23 22 20 21 19 17 19 23 24 22 21 26 29 27 25 26 25 23 22 21 21 21 20 19 19 19 18
14 15 14 13 13 13 14 15 16 18 18 18 18 18 18 18 19 20 20 21 21 20 20 20 21 21 20 20 20 20 20 20 20 20 20 20 19 19 20 20 20 22 23 24 25 25 23 22 22 22 21 23 25 25 24 24 24 23 23 23 21 20 19 17 18 22 26 26 24 24 29 31 28 27 27 25 23 23 22 21 20 19 18 17 16
8 10 12 13 13 12 13 14 15 16 17 17 18 18 18 18 19 19 20 21 21 21 21 21 21 22 22 22 22 22 22 21 21 21 21 21 21 21 21 21 21 22 22 23 24 25 26 26 25 26 26 25 26 26 25 24 24 23 23 24 23 21 20 20 22 25 27 28 26 22 25 31 29 26 27 27 25 25 24 22 21 18 16 15 14
12 10 10 11 12 11 11 11 12 13 14 15 16 17 18 18 19 19 20 20 20 20 20 20 21 21 22 22 23 23 23 23 23 23 23 23 23 23 24 24 24 24 23 23 23 24 26 27 27 29 29 29 28 28 27 26 25 25 24 25 25 24 24 24 26 28 28 28 27 20 20 27 28 24 27 28 27 26 24 21 20 18 16 15 14
17 16 13 10 10 10 10 10 9 9 9 10 11 12 13 15 15 17 18 19 19 20 20 20 21 21 22 22 23 24 24 24 24 24 24 23 23 24 25 25 25 25 25 25 25 24 25 26 28 30 30 30 30 30 29 26 25 25 25 25 25 25 27 27 28 30 30 29 26 18 17 25 26 23 27 30 27 27 25 22 21 19 16 15 14
16 15 12 10 10 10 10 9 8 6 5 5 5 6 7 8 8 9 11 12 14 15 16 17 18 18 19 19 19 20 20 20 19 19 19 19 20 21 23 24 25 25 26 26 25 25 26 26 27 28 28 28 28 28 27 25 24 24 24 25 25 24 25 25 26 30 30 28 25 19 19 26 27 24 28 30 26 26 27 26 24 21 18 17 15
9 8 8 8 8 9 9 7 5 4 4 4 3 4 4 5 5 5 5 6 7 7 8 8 9 10 10 11 12 13 14 14 14 14 15 16 18 19 21 23 24 25 27 26 25 25 25 25 25 26 26 26 25 24 24 22 21 21 22 25 25 24 23 20 20 25 28 28 26 21 20 27 28 24 26 28 26 25 26 26 25 22 20 19 16
4 3 2 2 3 5 6 5 3 4 5 5 4 3 3 4 4 5 5 6 6 6 6 6 7 7 8 9 10 11 13 14 14 14 15 17 18 19 20 21 23 26 28 27 25 25 25 24 24 24 24 24 23 22 22 22 21 21 22 25 24 23 23 21 21 24 26 29 29 22 19 26 29 24 22 23 24 25 26 25 25 24 22 21 20
5 4 4 3 1 1 1 3 3 4 4 3 2 2 2 3 4 5 6 7 7 7 8 8 9 9 9 9 10 10 12 13 13 14 15 16 17 18 18 18 21 24 26 25 24 24 24 24 24 24 24 24 24 24 24 25 24 23 24 25 25 24 25 26 26 22 17 19 24 20 17 23 26 23 19 15 14 20 25 24 24 26 25 24 25
Wind_Direction
110 106 106 109 108 109 110 110 111 112 117 121 123 124 127 128 130 153 317 313 319 332 307 295 311 331 345 349 349 348 347 349 348 337 321 317 320 325 327 328 330 332 331 328 325 326 323 321 325 327 323 322 322 322 321 323 329 330 329 329 328 328 325 325 323 319 320 321 323 325 325 326 323 321 325 325 321 327 302 252 252 350 337 308 246
108 104 104 105 105 108 109 109 109 108 108 107 105 98 84 36 341 331 326 317 311 304 288 276 286 315 340 351 348 341 339 344 350 350 343 333 331 333 333 334 335 334 333 332 330 328 322 317 319 320 318 320 321 324 325 324 326 327 327 325 324 324 322 319 317 317 321 323 323 323 325 326 323 324 324 325 319 321 319 242 253 338 345 342 284
106 103 102 104 104 108 109 109 108 105 97 86 73 47 27 13 359 352 344 336 331 314 294 285 288 314 339 348 345 339 338 341 350 355 353 349 348 348 346 343 341 340 338 337 336 333 331 326 323 319 317 318 319 321 322 321 322 321 321 320 319 318 316 316 317 319 323 324 322 320 321 321 319 319 314 318 320 314 317 271 270 300 313 348 18
107 104 105 107 106 108 108 105 99 92 83 68 55 40 30 22 6 357 351 345 339 327 312 310 316 328 337 339 336 333 333 334 343 352 355 354 353 354 355 352 349 347 344 344 343 340 338 336 333 330 326 323 322 321 320 320 321 321 320 317 315 316 316 318 319 320 321 321 320 318 317 315 314 316 310 309 312 309 310 303 300 301 292 317 17
113 109 112 114 114 111 103 89 72 60 58 50 39 29 22 11 354 346 345 341 337 328 314 313 318 323 327 330 329 327 325 324 329 337 345 348 346 347 350 349 350 351 350 348 347 346 346 344 341 338 336 335 334 333 333 333 333 333 331 325 319 316 316 317 317 318 320 321 319 318 316 315 317 316 311 308 305 306 302 289 290 301 290 272 344
121 118 121 122 120 113 101 83 61 49 47 41 35 26 16 8 354 341 333 333 335 329 317 310 309 311 315 318 323 323 320 319 319 320 326 332 334 340 344 347 350 353 353 353 352 352 351 350 348 346 345 345 346 347 349 349 349 348 345 342 336 329 324 318 318 319 320 321 319 317 315 316 319 315 312 311 307 306 304 289 273 283 283 260 273
131 127 125 125 120 108 101 91 70 55 48 39 30 22 14 10 360 344 332 331 333 331 327 324 315 310 310 311 316 318 316 318 317 316 319 320 323 333 342 349 352 351 351 351 351 352 351 351 350 348 349 351 352 353 354 355 356 355 354 352 349 345 340 334 332 332 331 331 329 325 322 321 320 317 313 310 310 309 306 305 295 283 269 251 260
141 134 127 125 119 109 102 94 74 55 45 31 18 12 9 7 360 348 337 331 329 326 322 327 324 314 310 313 318 317 316 320 320 320 319 317 321 329 339 346 347 346 345 344 344 346 347 346 345 345 347 349 350 351 354 356 357 356 354 352 351 350 348 345 344 342 342 342 340 335 328 325 323 321 319 314 313 307 299 306 312 300 268 251 257
153 143 132 125 122 122 118 101 65 42 30 12 359 360 2 359 355 354 353 350 343 333 319 324 328 321 315 317 320 319 323 328 327 324 321 322 327 331 336 339 339 339 339 338 340 341 343 344 342 341 342 343 346 350 353 355 354 351 349 346 344 344 343 344 344 344 344 344 343 339 331 328 325 323 324 322 320 313 309 312 314 310 294 281 267
170 161 156 150 151 176 181 172 343 355 355 343 333 340 350 348 348 359 9 13 1 340 325 327 331 328 321 320 321 322 325 328 327 326 324 327 331 331 333 335 335 335 334 336 337 337 339 342 342 340 341 341 343 349 351 351 350 348 347 345 342 339 337 337 339 341 342 342 343 342 338 334 331 329 329 329 325 323 326 324 320 320 325 323 290
190 190 198 199 201 219 222 235 260 271 304 316 311 318 329 334 344 358 7 16 8 346 333 332 333 331 323 312 316 322 323 320 320 325 327 329 331 330 329 330 331 332 334 336 336 335 335 337 339 340 341 343 345 347 348 348 349 350 350 349 347 344 339 335 335 337 339 342 345 346 346 343 340 340 340 336 333 335 339 335 333 336 342 351 348
203 206 209 207 212 226 230 242 244 238 263 289 299 306 312 326 343 353 0 13 9 359 359 359 353 346 333 314 312 316 316 315 316 320 324 326 327 325 324 325 327 331 336 337 336 335 336 337 339 340 343 348 350 350 350 351 352 354 355 354 352 350 346 342 337 338 341 345 348 349 351 352 351 351 350 349 349 352 353 347 345 343 346 1 1
208 210 212 210 213 217 220 226 223 225 251 273 286 291 302 323 340 347 360 11 11 14 19 18 11 0 344 331 333 327 308 307 313 314 315 315 316 318 321 324 326 333 337 337 339 339 341 343 344 346 348 351 354 356 358 359 360 0 0 0 2 360 357 355 351 349 349 348 349 350 353 356 357 358 359 1 1 2 5 2 357 348 341 353 359
215 213 214 214 215 214 213 213 212 220 241 258 262 269 288 310 335 349 6 13 20 29 21 15 11 6 349 339 354 0 337 327 331 322 311 302 303 310 317 323 327 334 336 338 344 347 348 350 352 356 355 355 358 1 5 7 6 5 8 12 15 15 12 9 4 360 357 354 354 356 359 2 2 4 6 8 11 12 14 10 2 356 348 351 354
219 217 215 216 221 219 217 215 211 213 221 231 234 251 281 297 338 0 15 19 27 31 16 5 2 1 355 345 359 2 0 356 351 353 346 310 296 306 313 321 328 331 333 339 347 352 355 356 359 4 3 4 4 5 9 10 9 11 19 23 24 25 23 20 15 11 8 6 8 9 8 8 7 10 12 15 19 20 20 16 8 5 358 358 359
223 221 221 224 229 222 218 218 212 209 211 214 218 232 262 284 339 10 21 24 27 27 17 9 12 19 10 347 314 354 17 341 342 359 18 356 311 311 313 317 325 325 326 332 343 352 357 357 358 4 6 7 6 7 11 11 12 17 25 28 28 28 28 28 25 22 20 18 19 19 16 14 15 18 23 25 26 23 20 19 15 12 3 1 9
227 228 228 230 233 228 221 219 216 212 213 217 222 221 222 252 325 13 25 27 24 22 20 15 28 44 29 14 358 8 236 327 333 348 11 16 6 341 325 325 328 325 327 330 338 344 347 349 351 356 1 4 3 6 10 11 13 18 24 28 29 28 29 31 31 29 28 27 27 28 26 26 29 32 33 30 24 18 17 21 20 19 13 2 7
228 230 231 234 236 234 228 224 224 221 222 226 226 223 217 226 274 357 18 28 25 25 27 26 36 44 28 26 19 340 281 329 345 328 356 17 22 10 355 342 341 338 338 335 336 339 338 340 343 348 354 358 359 3 8 9 12 16 22 27 28 26 27 29 32 32 32 32 32 35 37 37 38 38 33 27 22 21 23 29 29 28 28 12 2
226 228 230 234 236 235 231 230 233 229 227 229 229 228 221 226 248 304 0 18 29 30 30 35 47 47 36 31 23 17 345 2 26 325 335 7 15 21 26 353 345 347 346 337 331 336 339 337 339 343 345 348 350 356 3 5 11 15 19 24 25 25 25 26 29 30 31 32 32 35 39 40 40 36 31 26 25 29 33 36 34 27 29 25 7
223 226 229 232 235 234 232 235 237 231 226 229 232 229 222 227 240 258 338 0 26 30 25 29 39 41 39 40 38 44 66 63 34 15 279 319 357 14 15 3 354 349 346 342 337 338 345 343 340 342 342 344 344 349 357 1 10 16 17 21 22 22 23 24 26 26 27 29 31 33 35 37 36 33 31 31 30 32 37 39 37 29 23 24 20
220 224 227 230 233 233 234 239 239 231 229 233 231 228 228 227 229 236 288 325 4 16 10 12 24 34 37 40 46 51 60 52 24 18 45 234 329 345 356 1 9 7 355 341 338 337 341 343 342 343 345 348 348 349 354 359 11 17 17 19 21 21 22 21 22 23 22 24 26 29 31 32 32 30 29 31 33 34 36 38 40 40 32 24 21
221 224 226 229 232 233 235 240 240 235 236 238 230 228 233 227 222 228 259 281 309 349 352 351 5 27 36 37 42 42 41 29 13 11 11 312 288 304 344 354 351 4 4 347 343 346 345 346 348 351 353 357 359 359 1 7 16 19 16 16 17 20 21 20 19 19 19 19 20 23 26 28 28 27 27 28 31 34 36 37 40 44 45 36 25
223 223 224 227 229 229 232 238 240 238 238 238 230 226 231 226 222 233 252 264 272 312 331 329 337 4 26 35 37 35 32 22 7 2 350 307 295 312 347 356 336 352 6 357 353 355 351 348 351 1 6 8 10 8 13 20 22 18 14 12 13 16 19 18 16 15 15 15 15 16 19 22 24 24 25 25 27 31 34 37 39 42 46 46 38
223 221 221 223 224 225 230 235 235 235 236 235 228 220 222 224 227 242 252 251 261 300 312 308 308 333 2 24 31 27 24 22 12 5 360 348 331 327 350 2 352 1 14 12 6 358 356 356 356 7 11 16 18 16 21 26 24 16 10 8 8 10 12 13 13 12 11 10 11 13 14 16 18 20 22 24 25 26 30 34 37 39 42 45 46
222 219 218 218 219 223 228 232 230 231 234 231 225 217 219 221 228 242 245 245 275 296 295 289 289 306 329 353 14 13 14 20 16 13 16 25 22 2 3 8 360 6 18 23 18 8 7 12 13 7 9 15 18 18 18 17 13 6 3 3 4 4 5 6 8 9 9 6 6 9 11 12 12 14 17 20 22 24 25 29 33 37 39 42 45
223 220 217 215 218 221 226 229 228 229 230 226 224 222 222 223 228 236 236 249 276 281 276 277 284 296 307 316 331 348 1 11 13 14 20 27 29 20 17 25 19 14 28 38 33 25 19 17 20 17 7 7 8 9 4 360 359 355 353 355 358 0 1 2 5 7 7 5 2 3 6 8 9 10 12 14 17 20 22 24 28 32 36 38 42
228 224 220 217 218 219 223 226 225 226 227 227 229 230 228 227 232 237 239 252 262 259 263 275 282 288 296 295 290 304 337 356 6 8 10 16 23 26 28 39 40 11 25 40 39 33 27 24 32 32 15 3 1 0 353 347 347 347 347 348 351 356 357 359 3 5 5 4 1 359 0 3 4 5 7 9 11 14 17 20 23 26 30 33 38
234 230 226 222 221 221 222 222 221 223 225 226 229 232 232 233 237 242 243 247 253 254 262 274 276 274 280 281 265 262 306 345 358 354 358 10 23 34 36 43 51 15 6 21 22 26 29 31 38 33 19 8 2 0 355 350 348 345 344 343 346 349 351 354 357 357 359 0 359 358 357 357 358 359 1 3 5 7 10 14 18 20 23 27 32
235 232 229 226 224 224 224 221 219 220 219 219 223 229 234 238 241 244 246 249 253 257 261 265 268 267 267 268 251 242 265 323 348 342 345 4 22 35 34 36 46 48 3 3 343 346 12 13 11 8 5 1 359 358 357 352 350 347 341 336 336 338 340 344 345 345 347 351 354 357 357 355 352 352 354 355 358 1 3 7 11 15 18 21 25
235 233 231 230 229 230 229 226 223 220 216 215 220 227 235 242 245 245 247 250 252 254 260 265 268 271 274 272 258 250 261 288 334 337 333 349 7 20 25 25 30 55 140 109 320 311 346 348 346 349 351 353 356 356 353 349 346 344 339 333 328 327 330 333 333 334 338 342 346 350 355 355 351 348 348 349 350 352 355 359 3 8 12 15 19
240 237 236 237 237 237 235 231 227 224 223 222 225 231 237 243 247 248 248 250 250 252 260 267 269 272 280 283 268 258 265 274 298 325 326 329 336 345 356 0 10 33 131 142 171 308 326 328 332 340 345 347 348 347 344 344 346 345 342 334 324 319 320 322 324 327 332 339 340 341 343 346 346 345 344 344 344 345 347 350 353 357 2 7 11
245 242 242 243 244 244 241 237 232 231 234 234 234 237 241 244 247 250 251 251 251 254 261 266 266 268 276 287 280 264 266 270 276 291 300 308 318 324 327 327 332 333 326 280 238 289 314 319 322 329 334 335 336 336 334 336 343 344 344 338 324 314 312 313 318 324 330 337 338 336 334 333 333 334 336 338 339 339 340 341 344 347 350 355 0
245 245 245 245 247 249 248 245 240 238 242 244 243 243 245 247 248 251 252 252 254 257 261 263 262 262 271 283 285 276 272 272 276 281 284 294 308 316 315 313 313 311 310 305 283 293 312 321 324 326 329 327 328 333 333 333 337 339 341 339 329 318 315 315 318 323 329 332 333 334 333 331 326 322 323 326 328 331 333 334 335 337 339 343 347
241 244 246 246 247 249 251 251 249 246 247 248 247 246 246 247 249 250 251 252 254 256 259 261 259 259 267 276 281 279 274 273 279 286 287 290 299 308 311 308 307 307 305 305 300 294 304 316 324 327 329 326 323 328 330 331 333 333 333 334 332 327 324 322 321 323 326 328 329 330 331 331 328 322 318 318 319 320 323 325 327 329 331 333 336
238 241 246 247 246 247 248 251 251 250 250 249 245 244 246 248 248 251 253 252 253 254 255 258 260 259 262 268 272 272 269 267 271 279 281 283 288 297 303 302 301 306 308 303 296 290 297 307 315 320 325 323 319 321 324 324 326 326 326 328 330 329 327 324 321 320 320 324 327 327 325 324 321 319 316 315 315 315 315 317 319 322 324 326 328
238 241 246 247 246 246 247 249 250 250 249 247 243 242 245 247 249 253 257 256 255 256 257 260 262 261 261 263 266 268 270 270 272 275 276 277 281 287 293 294 291 297 305 301 294 291 292 298 303 309 313 314 313 315 317 318 318 318 318 321 325 327 328 327 324 322 320 320 323 324 323 319 314 311 310 309 310 311 311 312 314 316 318 320 321
237 239 243 245 246 247 249 249 248 248 246 244 243 243 245 248 250 255 259 261 262 262 263 266 267 266 265 266 268 271 276 280 281 282 282 281 280 282 287 290 289 292 298 297 293 290 288 292 299 303 304 305 306 308 311 313 314 316 319 323 326 328 331 333 332 329 325 319 317 318 317 316 313 308 304 301 302 305 306 308 309 312 314 315 316
239 240 243 245 248 249 251 251 249 247 247 246 246 248 248 249 251 254 258 262 265 266 266 268 271 273 274 276 278 279 282 289 293 295 296 294 290 287 288 291 292 293 295 295 294 290 289 292 297 299 301 303 304 306 311 313 312 315 322 328 331 332 335 336 335 335 332 324 320 319 316 315 315 313 309 304 301 300 301 302 305 308 311 313 313
243 244 245 247 250 252 251 251 250 249 248 247 249 251 251 253 254 255 257 259 262 266 268 270 273 275 278 281 285 286 288 293 296 299 299 299 297 295 294 297 298 297 297 297 296 293 291 294 296 298 299 302 303 305 310 313 311 313 318 323 326 331 336 335 333 334 333 327 322 319 318 318 318 319 319 315 310 304 300 299 300 303 309 312 311
246 246 246 247 252 255 255 253 250 249 247 246 248 250 252 255 256 258 260 261 263 268 272 275 277 277 278 280 283 285 287 289 292 295 296 295 295 295 297 300 301 301 301 301 300 297 295 295 295 297 299 299 302 304 308 310 309 311 316 314 313 321 327 329 329 330 330 328 323 318 316 315 313 313 313 312 312 309 303 299 299 300 305 312 311
247 248 247 249 254 255 256 256 253 251 250 249 250 252 255 257 259 261 264 266 269 272 276 280 281 280 279 280 281 283 285 286 289 292 293 294 293 293 295 298 299 300 300 300 299 298 297 295 294 296 297 297 300 304 305 306 306 307 310 308 306 312 318 319 322 325 326 325 324 320 317 315 311 309 308 307 308 309 304 300 299 300 303 308 308
246 247 245 248 253 255 256 256 256 255 254 254 255 257 259 260 262 264 266 268 271 273 276 280 282 283 282 282 282 284 286 287 289 291 293 294 292 292 295 296 296 297 296 295 296 295 293 291 291 293 291 291 298 302 302 305 307 307 306 305 305 309 312 313 317 321 323 324 323 319 317 317 314 311 310 309 310 310 306 303 303 302 301 302 304
240 241 244 248 250 255 258 259 260 259 259 259 259 260 262 264 264 266 268 270 271 273 275 278 281 284 285 285 285 285 286 288 290 292 293 293 292 292 292 293 293 294 292 291 291 291 289 285 286 288 283 285 296 301 301 304 307 307 307 306 303 303 305 304 306 312 317 319 316 314 314 315 315 313 312 313 315 316 314 312 311 308 303 301 300
242 240 245 251 253 256 258 260 262 263 264 265 263 262 263 264 266 267 268 270 270 271 273 275 280 283 285 286 287 287 288 290 292 294 295 296 296 295 293 292 291 290 290 288 288 287 286 282 281 282 280 282 291 297 299 301 304 306 306 304 300 297 296 291 288 296 308 312 308 306 309 311 313 312 311 314 318 320 321 320 318 314 308 302 296
278 259 249 250 253 257 259 260 263 264 266 267 265 263 263 264 265 267 268 269 270 271 273 274 278 282 284 286 287 289 292 293 294 296 298 300 301 300 298 296 292 290 289 287 286 286 285 282 276 277 281 283 284 291 298 299 297 298 298 298 298 295 291 288 286 293 304 307 302 299 301 305 309 309 309 313 319 321 321 321 321 319 314 305 294
266 265 255 249 248 251 255 260 264 266 266 265 264 264 263 263 263 265 267 269 270 272 274 275 278 281 283 286 287 289 293 295 296 299 300 302 304 303 302 299 297 297 295 292 291 289 287 284 278 277 284 286 284 290 298 296 291 292 292 293 295 294 290 289 289 293 299 300 298 293 290 299 306 305 305 312 319 319 317 318 319 320 318 311 300
236 239 241 239 233 232 236 241 247 254 260 263 266 267 266 265 265 265 266 268 269 270 272 274 276 278 280 282 284 287 292 294 297 300 302 303 304 302 301 300 299 300 299 297 298 297 294 291 286 285 288 290 291 293 296 294 292 293 294 292 292 292 290 290 290 292 294 296 297 289 277 291 301 299 301 311 316 315 313 312 313 315 315 312 304
223 222 222 218 215 216 217 217 216 218 225 237 247 255 260 261 262 263 265 267 269 272 275 277 278 280 282 284 285 288 291 294 298 301 302 301 299 298 298 298 298 298 296 296 298 297 296 294 293 293 294 295 295 294 294 294 292 295 295 291 290 289 286 284 285 288 292 296 297 288 277 287 295 295 299 308 312 309 308 307 309 312 311 308 306
211 201 198 193 192 196 193 184 173 159 156 170 195 215 231 241 245 249 254 259 265 271 277 282 284 286 289 292 294 295 294 296 299 300 299 296 295 295 296 296 297 296 293 294 295 295 294 293 293 294 294 295 295 293 293 292 291 293 289 283 287 289 282 277 277 282 288 293 294 290 280 284 291 292 295 304 306 304 305 306 308 310 309 308 307
167 164 175 165 175 193 191 180 147 118 126 143 163 182 201 222 239 249 257 266 275 282 286 287 285 285 288 291 295 300 301 302 303 301 298 295 293 294 295 295 295 292 291 293 295 294 294 294 292 290 289 290 290 289 288 287 287 289 282 280 286 285 275 270 271 277 283 287 289 286 274 279 289 290 290 298 301 299 301 305 307 308 308 307 306
152 104 57 33 335 275 177 159 146 132 142 167 196 223 249 259 265 274 283 289 295 299 299 298 294 292 292 294 298 303 305 305 304 301 298 294 292 293 293 293 291 289 290 293 294 293 292 291 289 288 286 285 284 283 283 283 284 284 281 282 285 279 270 270 272 273 276 281 286 284 268 274 288 290 286 291 296 297 300 302 303 304 303 302 302